Hourly Data Report for October 14, 2019

All times are specified in Local Standard Time (LST). Add 1 hour to adjust for Daylight Saving Time where and when it is observed.

EUREKA CLIMATE
NUNAVUT
Current Station Operator: ECCC - MSC

79°59'21.000" N
85°56'02.000" W
10.00 m
2401199
71613
NEK

Download Data

Hourly Data (October 2019)
Hourly Data Report for October 14, 2019
TIME Temp Definition
°C
Dew Point Definition
°C
Rel Hum Definition
%
Wind Dir Definition
10's deg

Wind Spd Definition
km/h
Visibility Definition
km
Stn Press Definition
kPa
Hmdx Definition


Wind Chill Definition


Weather Definition


00:00 -7.6 -8.0 97 29 12   100.14   -13 LegendNANA
01:00 -10.8 -11.4 95 1 8   100.14   -15 LegendNANA
02:00 -11.6 -12.2 95 1 8   100.15   -16 LegendNANA
03:00 -12.5 -13.0 96 2 11   100.13   -19 LegendNANA
04:00 -13.2 -14.0 94 2 11   100.12   -19 LegendNANA
05:00 -12.4 -13.2 94 2 6   100.14   -16 LegendNANA
06:00 -11.6 -12.3 95 3 5   100.13   -15 LegendNANA
07:00 -10.2 -10.8 95 6 3   100.12   -12 LegendNANA
08:00 -10.1 -10.7 95 0 1   100.12   -11 LegendNANA
09:00 -10.1 -10.7 95 8 4   100.11   -12 LegendNANA
10:00 -10.3 -10.9 95 2 5   100.10   -13 LegendNANA
11:00 -9.0 -9.7 95 1 3   100.09   -11 LegendNANA
12:00 -8.3 -8.8 96 36 5   100.10   -11 LegendNANA
13:00 -7.0 -7.4 97 34 3   100.10   -9 LegendNANA
14:00 -8.3 -8.8 96 36 6   100.10   -12 LegendNANA
15:00 -7.3 -7.8 96 1 5   100.13   -10 LegendNANA
16:00 -6.7 -7.4 95 1 6   100.13   -10 LegendNANA
17:00 -6.2 -7.7 89 1 5   100.14   -9 LegendNANA
18:00 -6.6 -8.5 87 36 10   100.14   -11 LegendNANA
19:00 -7.0 -9.2 84 1 20   100.16   -14 LegendNANA
20:00 -7.8 -10.0 84 1 17   100.19   -14 LegendNANA
21:00 -10.2 -12.1 86 2 16   100.21   -17 LegendNANA
22:00 -10.2 -12.8 82 2 13   100.22   -16 LegendNANA
23:00 -10.6 -13.2 82 1 12   100.23   -17 LegendNANA

Notes on Data Quality.

Legend

  • E = Estimated
  • M = Missing
  • NA = Not Available
Date modified: